Regional Weather Roundup
Issued by NWS Albany, NY

Home | Current Version | Previous Version | Graphics & Text | Print | Product List | Glossary Off
Versions: 1 2 3 4 5 6 7 8 9 10 11 12 13 14 15 16 17 18 19 20 21 22 23 24 25 26 27 28 29 30 31 32 33 34 35 36 37 38 39 40 41 42 43 44 45 46 47 48 49 50

000
ASUS41 KALY 030410
RWRALY

NEW YORK STATE HOURLY WEATHER ROUNDUP
NATIONAL WEATHER SERVICE ALBANY NY
1200 AM EDT FRI JUL 03 2015

NOTE: "FAIR" INDICATES FEW OR NO CLOUDS BELOW 12,000 FEET WITH NO
SIGNIFICANT WEATHER AND/OR NO OBSTRUCTIONS TO VISIBILITY.

NYZ032-033-038>043-046>054-057>066-NYZ062>081-030500-
EAST


CITY           SKY/WX    TMP DP  RH WIND       PRES   REMARKS
ALBANY         PTCLDY    62  46  55 CALM      29.93R
GLENS FALLS    CLEAR     56  51  84 CALM      29.92R
POUGHKEEPSIE   MOCLDY    67  58  72 CALM      29.90R
NEWBURGH       MOCLDY    68  61  77 E12       29.92R
MONTGOMERY     MOCLDY    64  61  90 N5        29.91R
WHITE PLAINS   CLOUDY    68  64  87 NW3       29.89R
ISLIP          CLOUDY    68  64  87 CALM      29.86F
NEW YORK CITY  CLOUDY    73  60  63 SW3       29.87S
CENTRAL PARK   CLOUDY    72  61  68 W5        29.91R
$$

NYZ005>009-017-018-044>046-055-056-030500-
CENTRAL


CITY           SKY/WX    TMP DP  RH WIND       PRES   REMARKS
FULTON         CLEAR     50  47  89 CALM      29.97S
SYRACUSE       PTCLDY    55  50  83 CALM      29.97S
ROME           CLEAR     53  49  86 CALM      29.98R
ELMIRA         CLEAR     53  51  93 CALM      29.98S
BINGHAMTON     CLEAR     57  47  69 N6        29.98S
MONTICELLO     CLEAR     59  54  82 NW6       29.96S
$$

NYZ026>034-041>043-030500-
NORTH


CITY           SKY/WX    TMP DP  RH WIND       PRES   REMARKS
WATERTOWN      CLEAR     53  47  79 S5        29.96S
FORT DRUM      NOT AVBL
MASSENA        CLEAR     56  49  77 SW6       29.94S
SARANAC LAKE   CLEAR     42  41  96 CALM      29.95S
PLATTSBURGH    CLEAR     58  45  62 NW5       29.91S
$$

NYZ001>004-010>016-019>021-030500-
WEST


CITY           SKY/WX    TMP DP  RH WIND       PRES   REMARKS
NIAGARA FALLS  CLEAR     56  50  80 CALM      29.99R
BUFFALO        CLEAR     59  48  67 CALM      29.99S
DUNKIRK        CLEAR     54  51  90 CALM      29.99S
JAMESTOWN      CLEAR     55  43  62 NE5       30.01F
WELLSVILLE     CLEAR     56  48  74 N3        30.03S
ROCHESTER      CLEAR     55  51  86 SW5       29.99R
PENN YAN       CLEAR     51  47  86 CALM      29.99S
$$

             KEY
       WCI = WIND CHILL INDEX
       VSB = VISIBILITY
       HX  = HEAT INDEX
$$


USA.gov is the U.S. government's official web portal to all federal, state and local government web resources and services.